Weather in Stranraer

United Kingdom     54°54′11″N   5°01′11″W
temp.,
°C
wind,
m/s
gust,
m/s
humid.,
%
clouds,
%
prec.,
mm/h
press.,
hPa
HPBL,
m
13 june, sun
sun1301:00+13sse469575 0.1 1025165
04:00+12sse229710 0.0 102524
07:00+14s339456 0.0 1025106
10:00+16ssw56865 0.0 1025284
13:00+18s69781 0.0 1024381
16:00+16s6988100 0.0 1022241
19:00+16s6109186 0.1 1020205
22:00+13sw239839 0.5 102068
14 june, mon
mon1401:00+11nnw5796100 0.8 1019411
04:00+11wnw51097100 4.2 1019668
07:00+11w61090100 4.4 1020768
10:00+12w61080100 0.0 1021974
13:00+12wnw6973100 0.2 1022981
16:00+12nw6975100 0.0 1022902
19:00+11nw7107943 0.1 1023657
22:00+9nw5886100 0.0 1024402
15 june, tue
tue1501:00+9nw468529 0.0 1023261
04:00+8wsw118584 0.0 1023175
07:00+9se358851 0.0 1022207
10:00+12sse71077100 0.0 1020690
13:00+13s9138096 0.0 1018652
16:00+13s10148223 0.0 1016497
19:00+13sse91585100 0.0 1013361
22:00+13sse9158696 0.0 1012356
16 june, wed
wed1601:00+13s71395100 0.0 1011341
04:00+11sw61388100 0.3 1011583
07:00+11ssw479381 0.9 1011486
10:00+12sw577898 0.0 1012657
13:00+14ssw467298 0.0 1012757
16:00+14s6673100 0.0 1012484
19:00+13s588063 0.0 1012323
22:00+11sse339110 0.1 101260
17 june, thu
thu1701:00+10se3392100 0.1 101449
04:00+10ese0091100 0.0 101311
07:00+12nnw238983 0.0 1014118
10:00+13nnw6779100 0.0 1014574
13:00+14nw6774100 0.0 1015654
16:00+13nw8974100 0.0 1016488
19:00+12nw9127859 0.0 1017426
22:00+10nw7108616 0.0 1019328